Millville, NJ

4:19 AM EDT on May 29, 2017 (GMT -0400)
Millville Municipal

Weather History for KMIV - January, 2014

Change the Weather History Date:

Thursday, January 23, 2014

  Actual Average Record
Temperature  
Mean Temperature 8 °F -  
Max Temperature 21 °F 43 °F 68 °F (1999)
Min Temperature -5 °F 24 °F -5 °F (2014)
Degree Days  
Heating Degree Days 57    
Moisture  
Dew Point 2 °F    
Average Humidity 59    
Maximum Humidity 87    
Minimum Humidity 44    
Precipitation  
Precipitation 0.00 in - - ()
Sea Level Pressure  
Sea Level Pressure 30.23 in    
Wind  
Wind Speed 8 mph (WNW)    
Max Wind Speed 16 mph    
Max Gust Speed 25 mph    
Visibility 10 miles    
Events      
Averages and records for this station are not official NWS values.
T = Trace of Precipitation, MM = Missing Value Source: NWS Daily Summary

Daily Weather History Graph

Daily Weather History Graph

Search for Another Location

Airport or City:

Trip Planner

Search our weather history database for the weather conditions in past years. The results will help you decide how hot, cold, wet, or windy it might be!

Date:

Astronomy

Jan. 23, 2014 Rise Set
Actual Time 7:14 AM EST 5:10 PM EST
Civil Twilight 6:45 AM EST 5:39 PM EST
Nautical Twilight 6:12 AM EST 6:11 PM EST
Astronomical Twilight 5:41 AM EST 6:43 PM EST
Moon No Moon Rise 10:50 AM EST (1/23)
Length of Visible Light 10h 53m
Length of Day
9h 55m
Waning Gibbous, 55% of the Moon is Illuminated
Jan 23
Waning Gibbous
Jan 24
Last Quarter
Jan 30
New
Feb 6
First Quarter
Feb 14
Full

Hourly Weather History & Observations

Time (EST) Temp. Windchill Dew Point Humidity Pressure Visibility Wind Dir Wind Speed Gust Speed Precip Events Conditions
12:54 AM 10.0 °F -0.9 °F -0.0 °F 64% 30.08 in 10.0 mi West 6.9 mph - N/A   Clear
1:54 AM 10.9 °F 1.4 °F -0.0 °F 61% 30.09 in 10.0 mi WNW 5.8 mph - N/A   Mostly Cloudy
2:54 AM 9.0 °F -2.2 °F -0.0 °F 67% 30.11 in 10.0 mi West 6.9 mph - N/A   Overcast
3:54 AM 10.0 °F -0.9 °F -0.0 °F 64% 30.12 in 10.0 mi WNW 6.9 mph - N/A   Overcast
4:54 AM 7.0 °F -1.7 °F -2.0 °F 67% 30.14 in 10.0 mi West 4.6 mph - N/A   Overcast
5:54 AM 1.9 °F - -2.0 °F 83% 30.17 in 10.0 mi Calm Calm - N/A   Clear
6:54 AM -5.1 °F - -8.0 °F 87% 30.18 in 10.0 mi Calm Calm - N/A   Clear
7:54 AM -4.0 °F -16.3 °F -8.0 °F 83% 30.18 in 10.0 mi WNW 5.8 mph - N/A   Clear
8:54 AM 12.0 °F 1.5 °F 1.0 °F 61% 30.19 in 10.0 mi WNW 6.9 mph - N/A   Clear
9:54 AM 17.1 °F 5.8 °F 1.9 °F 52% 30.22 in 10.0 mi NNW 9.2 mph - N/A   Clear
10:54 AM 19.0 °F 5.6 °F 3.0 °F 50% 30.22 in 10.0 mi WNW 13.8 mph 17.3 mph 0.00 in   Clear
11:54 AM 21.0 °F 9.3 °F 3.9 °F 48% 30.21 in 10.0 mi West 11.5 mph - 0.00 in   Clear
12:54 PM 21.0 °F 8.6 °F 5.0 °F 50% 30.19 in 10.0 mi WSW 12.7 mph - N/A   Clear
1:54 PM 21.0 °F 8.1 °F 5.0 °F 50% 30.19 in 10.0 mi West 13.8 mph 18.4 mph N/A   Clear
2:54 PM 21.9 °F 8.2 °F 6.1 °F 51% 30.20 in 10.0 mi West 16.1 mph 25.3 mph N/A   Partly Cloudy
3:54 PM 21.9 °F 10.4 °F 8.1 °F 55% 30.22 in 10.0 mi West 11.5 mph - N/A   Clear
4:54 PM 21.9 °F 10.4 °F 3.0 °F 44% 30.25 in 10.0 mi WNW 11.5 mph - N/A   Clear
5:54 PM 19.0 °F 10.0 °F 3.0 °F 50% 30.28 in 10.0 mi WNW 6.9 mph - N/A   Clear
6:31 PM 19.9 °F 7.3 °F 3.9 °F 50% 30.29 in 2.5 mi NNW 12.7 mph 21.9 mph 0.00 in   Partly Cloudy
6:44 PM 19.0 °F 11.1 °F 1.9 °F 47% 30.29 in 10.0 mi WNW 5.8 mph - 0.00 in   Clear
6:54 PM 15.1 °F 6.4 °F 1.9 °F 56% 30.31 in 10.0 mi WNW 5.8 mph - 0.00 in   Clear
7:54 PM 18.0 °F 6.1 °F 5.0 °F 57% 30.32 in 10.0 mi WNW 10.4 mph - N/A   Clear
8:54 PM 17.1 °F 5.0 °F 7.0 °F 65% 30.34 in 10.0 mi WNW 10.4 mph - N/A   Clear
9:54 PM 15.1 °F 5.2 °F 5.0 °F 64% 30.35 in 10.0 mi West 6.9 mph - N/A   Clear
10:54 PM 15.1 °F 2.5 °F 1.9 °F 56% 30.36 in 10.0 mi WNW 10.4 mph - N/A   Clear
11:54 PM 12.9 °F 2.6 °F 1.0 °F 59% 30.37 in 10.0 mi West 6.9 mph - N/A   Clear